Freeport, IL

11:06 AM CDT on May 27, 2018 (GMT -0500)
Albertus

Weather History for KFEP - November, 2013

Change the Weather History Date:

Monday, November 18, 2013

  Actual Average Record
Temperature  
Mean Temperature 34 °F -  
Max Temperature 41 °F 47 °F 68 °F (1975)
Min Temperature 28 °F 27 °F 5 °F (2014)
Degree Days  
Heating Degree Days 30    
Moisture  
Dew Point 29 °F    
Average Humidity 75    
Maximum Humidity 86    
Minimum Humidity 54    
Precipitation  
Precipitation 0.00 in - - ()
Sea Level Pressure  
Sea Level Pressure 30.05 in    
Wind  
Wind Speed 15 mph (WNW)    
Max Wind Speed 25 mph    
Max Gust Speed 37 mph    
Visibility 10 miles    
Events      
Averages and records for this station are not official NWS values.
T = Trace of Precipitation, MM = Missing Value Source: NWS Daily Summary

Daily Weather History Graph

Daily Weather History Graph

Search for Another Location

Airport or City:

Astronomy

Nov. 18, 2013 Rise Set
Actual Time 6:52 AM CST 4:33 PM CST
Civil Twilight 6:22 AM CST 5:04 PM CST
Nautical Twilight 5:48 AM CST 5:38 PM CST
Astronomical Twilight 5:15 AM CST 6:11 PM CST
Moon 5:35 PM CST (11/18) 7:41 AM CST (11/18)
Length of Visible Light 10h 41m
Length of Day
9h 41m
Full, 99% of the Moon is Illuminated
Nov 18
Full
Nov 25
Last Quarter
Dec 2
New
Dec 9
First Quarter
Dec 17
Full

Hourly Weather History & Observations

Time (CST) Temp. Windchill Dew Point Humidity Pressure Visibility Wind Dir Wind Speed Gust Speed Precip Events Conditions
12:15 AM 40.1 °F 33.2 °F 35.6 °F 84% 29.79 in 10.0 mi West 11.5 mph 19.6 mph N/A   Scattered Clouds
12:35 AM 41.2 °F 33.4 °F 36.5 °F 83% 29.80 in 10.0 mi West 15.0 mph 21.9 mph N/A   Clear
12:55 AM 40.3 °F 33.4 °F 35.4 °F 83% 29.80 in 10.0 mi West 11.5 mph 26.5 mph N/A   Clear
1:15 AM 38.7 °F 31.4 °F 34.7 °F 86% 29.80 in 10.0 mi West 11.5 mph - N/A   Clear
1:35 AM 38.7 °F 31.4 °F 34.5 °F 85% 29.81 in 10.0 mi West 11.5 mph 20.7 mph N/A   Clear
1:55 AM 38.7 °F 29.1 °F 34.0 °F 83% 29.81 in 10.0 mi West 18.4 mph 25.3 mph N/A   Clear
2:15 AM 38.7 °F 28.3 °F 33.8 °F 83% 29.82 in 10.0 mi West 21.9 mph 26.5 mph N/A   Clear
2:35 AM 38.7 °F 29.1 °F 33.4 °F 81% 29.82 in 10.0 mi West 18.4 mph 27.6 mph N/A   Clear
2:55 AM 38.7 °F 29.8 °F 34.0 °F 83% 29.83 in 10.0 mi West 16.1 mph 21.9 mph N/A   Clear
3:15 AM 38.7 °F 29.5 °F 34.3 °F 84% 29.84 in 10.0 mi West 17.3 mph 23.0 mph N/A   Clear
3:35 AM 38.7 °F 29.8 °F 34.3 °F 84% 29.85 in 10.0 mi West 16.1 mph 25.3 mph N/A   Clear
3:55 AM 36.7 °F 28.4 °F 32.5 °F 85% 29.85 in 10.0 mi West 12.7 mph 17.3 mph N/A   Clear
4:15 AM 36.3 °F 27.5 °F 32.4 °F 86% 29.86 in 10.0 mi West 13.8 mph 21.9 mph N/A   Clear
4:35 AM 36.1 °F 25.9 °F 32.0 °F 85% 29.87 in 10.0 mi West 18.4 mph 24.2 mph N/A   Clear
4:55 AM 36.1 °F 25.9 °F 32.0 °F 85% 29.88 in 10.0 mi West 18.4 mph 26.5 mph N/A   Clear
5:15 AM 36.1 °F 26.2 °F 32.0 °F 85% 29.89 in 10.0 mi West 17.3 mph 24.2 mph N/A   Scattered Clouds
5:35 AM 36.1 °F 26.9 °F 32.0 °F 85% 29.89 in 10.0 mi West 15.0 mph - N/A   Mostly Cloudy
5:55 AM 36.1 °F 24.2 °F 31.6 °F 84% 29.89 in 10.0 mi WNW 25.3 mph 28.8 mph N/A   Overcast
6:15 AM 35.2 °F 24.1 °F 30.6 °F 83% 29.91 in 10.0 mi West 20.7 mph 28.8 mph N/A   Overcast
6:35 AM 35.2 °F 24.7 °F 30.6 °F 83% 29.92 in 10.0 mi WNW 18.4 mph 26.5 mph N/A   Overcast
6:55 AM 35.6 °F 25.9 °F 30.9 °F 83% 29.93 in 10.0 mi West 16.1 mph 23.0 mph N/A   Overcast
7:15 AM 36.1 °F 26.5 °F 31.1 °F 82% 29.94 in 10.0 mi WNW 16.1 mph 26.5 mph N/A   Overcast
7:35 AM 36.1 °F 26.9 °F 30.7 °F 81% 29.96 in 10.0 mi WNW 15.0 mph 23.0 mph N/A   Overcast
7:55 AM 36.1 °F 24.2 °F 29.5 °F 77% 29.96 in 10.0 mi WNW 25.3 mph 32.2 mph N/A   Overcast
8:15 AM 36.1 °F 27.3 °F 30.2 °F 79% 29.98 in 10.0 mi WNW 13.8 mph 32.2 mph N/A   Overcast
8:35 AM 34.9 °F 24.9 °F 28.9 °F 79% 29.99 in 10.0 mi WNW 16.1 mph 25.3 mph N/A   Overcast
8:55 AM 35.8 °F 26.1 °F 30.0 °F 80% 29.99 in 10.0 mi WNW 16.1 mph 21.9 mph N/A   Overcast
9:15 AM 36.1 °F 25.0 °F 29.3 °F 76% 30.00 in 10.0 mi WNW 21.9 mph 28.8 mph N/A   Scattered Clouds
9:35 AM 36.1 °F 24.7 °F 27.9 °F 72% 30.01 in 10.0 mi WNW 23.0 mph 36.8 mph N/A   Scattered Clouds
9:55 AM 38.5 °F 28.9 °F 30.6 °F 73% 30.03 in 10.0 mi WNW 18.4 mph 28.8 mph N/A   Scattered Clouds
10:15 AM 38.7 °F 28.3 °F 30.6 °F 73% 30.04 in 10.0 mi West 21.9 mph 28.8 mph N/A   Scattered Clouds
10:35 AM 38.7 °F 30.5 °F 30.6 °F 73% 30.05 in 10.0 mi WNW 13.8 mph - N/A   Mostly Cloudy
10:55 AM 38.7 °F 29.5 °F 28.9 °F 68% 30.06 in 10.0 mi WNW 17.3 mph 29.9 mph N/A   Scattered Clouds
11:15 AM 38.7 °F 28.8 °F 28.8 °F 68% 30.06 in 10.0 mi WNW 19.6 mph 27.6 mph N/A   Scattered Clouds
11:35 AM 38.8 °F 29.1 °F 28.4 °F 66% 30.06 in 10.0 mi West 19.6 mph 28.8 mph N/A   Scattered Clouds
11:55 AM 40.1 °F 31.3 °F 29.1 °F 65% 30.07 in 10.0 mi WNW 17.3 mph 27.6 mph N/A   Clear
12:15 PM 40.1 °F 31.3 °F 28.0 °F 62% 30.08 in 10.0 mi WNW 17.3 mph 29.9 mph N/A   Clear
12:35 PM 40.8 °F 30.9 °F 28.2 °F 61% 30.08 in 10.0 mi WNW 23.0 mph 29.9 mph N/A   Clear
12:55 PM 41.2 °F 31.4 °F 27.9 °F 59% 30.08 in 10.0 mi West 23.0 mph 29.9 mph N/A   Clear
1:15 PM 41.2 °F 31.9 °F 27.0 °F 57% 30.10 in 10.0 mi WNW 20.7 mph 29.9 mph N/A   Clear
1:35 PM 41.2 °F 31.4 °F 26.6 °F 56% 30.10 in 10.0 mi WNW 23.0 mph 28.8 mph N/A   Clear
1:55 PM 41.2 °F 31.1 °F 25.9 °F 55% 30.10 in 10.0 mi WNW 24.2 mph 34.5 mph N/A   Clear
2:15 PM 41.2 °F 32.4 °F 26.2 °F 55% 30.11 in 10.0 mi NW 18.4 mph 31.1 mph N/A   Clear
2:35 PM 41.2 °F 31.9 °F 26.2 °F 55% 30.11 in 10.0 mi WNW 20.7 mph 28.8 mph N/A   Clear
2:55 PM 41.2 °F 33.0 °F 25.7 °F 54% 30.12 in 10.0 mi WNW 16.1 mph 27.6 mph N/A   Clear
3:15 PM 41.2 °F 33.4 °F 27.3 °F 58% 30.13 in 10.0 mi WNW 15.0 mph 24.2 mph N/A   Clear
3:35 PM 41.2 °F 33.0 °F 26.8 °F 57% 30.13 in 10.0 mi WNW 16.1 mph 24.2 mph N/A   Clear
3:55 PM 39.6 °F 31.7 °F 26.1 °F 58% 30.14 in 10.0 mi WNW 13.8 mph 21.9 mph N/A   Clear
4:15 PM 38.7 °F 30.9 °F 25.5 °F 59% 30.15 in 10.0 mi WNW 12.7 mph 23.0 mph N/A   Clear
4:35 PM 38.7 °F 31.8 °F 27.0 °F 63% 30.16 in 10.0 mi WNW 10.4 mph 19.6 mph N/A   Clear
4:55 PM 38.7 °F 32.9 °F 28.0 °F 66% 30.17 in 10.0 mi WNW 8.1 mph 19.6 mph N/A   Clear
5:15 PM 36.1 °F 29.3 °F 26.6 °F 68% 30.17 in 10.0 mi WNW 9.2 mph - N/A   Clear
5:35 PM 34.9 °F 27.7 °F 26.6 °F 72% 30.19 in 10.0 mi West 9.2 mph - N/A   Clear
5:55 PM 33.8 °F 27.7 °F 26.4 °F 74% 30.19 in 10.0 mi WNW 6.9 mph - N/A   Clear
6:15 PM 33.8 °F 26.4 °F 26.2 °F 74% 30.20 in 10.0 mi WNW 9.2 mph - N/A   Clear
6:35 PM 33.8 °F 28.6 °F 26.6 °F 75% 30.20 in 10.0 mi West 5.8 mph - N/A   Clear
6:55 PM 33.8 °F 27.0 °F 26.6 °F 75% 30.21 in 10.0 mi WNW 8.1 mph - N/A   Clear
7:15 PM 33.8 °F 27.7 °F 27.3 °F 77% 30.22 in 10.0 mi West 6.9 mph - N/A   Clear
7:35 PM 33.8 °F 27.0 °F 28.2 °F 80% 30.22 in 10.0 mi West 8.1 mph - N/A   Clear
7:55 PM 32.4 °F 26.0 °F 27.5 °F 82% 30.23 in 10.0 mi West 6.9 mph - N/A   Clear
8:15 PM 31.5 °F 24.2 °F 26.6 °F 82% 30.23 in 10.0 mi West 8.1 mph - N/A   Clear
8:35 PM 31.5 °F 25.8 °F 26.6 °F 82% 30.24 in 10.0 mi West 5.8 mph - N/A   Clear
8:55 PM 31.8 °F 25.4 °F 26.4 °F 80% 30.24 in 10.0 mi WNW 6.9 mph - N/A   Clear
9:15 PM 31.5 °F 26.8 °F 26.8 °F 83% 30.25 in 10.0 mi West 4.6 mph - N/A   Clear
9:35 PM 30.0 °F 25.2 °F 25.9 °F 85% 30.25 in 10.0 mi West 4.6 mph - N/A   Clear
9:55 PM 29.3 °F 24.3 °F 25.2 °F 85% 30.26 in 10.0 mi West 4.6 mph - N/A   Clear
10:15 PM 28.8 °F 22.6 °F 24.8 °F 85% 30.26 in 10.0 mi West 5.8 mph - N/A   Clear
10:35 PM 28.8 °F 22.6 °F 24.8 °F 85% 30.27 in 10.0 mi West 5.8 mph - N/A   Clear
10:55 PM 28.8 °F 23.7 °F 24.8 °F 85% 30.27 in 10.0 mi West 4.6 mph - N/A   Clear
11:15 PM 28.8 °F 25.0 °F 24.8 °F 85% 30.28 in 10.0 mi WNW 3.5 mph - N/A   Clear
11:35 PM 28.9 °F 23.9 °F 24.4 °F 83% 30.28 in 10.0 mi WNW 4.6 mph - N/A   Clear
11:55 PM 28.8 °F 25.0 °F 24.8 °F 85% 30.28 in 10.0 mi WNW 3.5 mph - N/A   Clear